SCP
0 0 0 0 0 0 0 0 0 0 0 0 0 0 0 0 0 0 0 0 0 0 0 0 0 0 0 0 0 0 1 1 1 1 1 1 1 1
0 0 0 0 0 0 0 0 0 0 0 0 0 0 0 0 0 0 0 0 0 0 0 0 0 0 0 0 0 0 0 1 1 1 1 1 1 1
0 0 0 0 0 0 0 0 0 0 0 0 0 0 0 0 0 0 0 0 0 0 0 0 0 0 0 0 0 0 0 1 1 1 1 1 1 1
0 0 0 0 0 0 0 0 0 0 0 0 0 0 0 0 0 0 0 0 0 0 0 0 0 0 0 0 0 0 0 0 0 0 0 1 1 1
0 0 0 0 0 0 0 0 0 0 0 0 0 0 0 0 0 0 0 0 0 0 0 0 0 0 0 0 0 0 0 0 0 0 0 0 0 0
0 0 0 0 0 0 0 0 0 0 0 0 0 0 0 0 0 0 0 0 0 0 0 0 0 0 0 0 0 0 0 0 0 0 0 0 0 0
0 0 0 0 0 0 0 0 0 0 0 0 0 0 0 0 0 0 0 0 0 0 0 0 0 0 0 0 0 0 0 0 0 0 0 0 0 0
0 0 0 0 0 0 0 0 0 0 0 0 0 0 0 0 0 0 0 0 0 0 0 0 0 0 0 0 0 0 0 0 0 0 0 0 0 0
0 0 0 0 0 0 0 0 0 0 0 0 0 0 0 0 0 0 0 0 0 0 0 0 0 0 0 0 0 0 0 0 0 0 0 0 0 0
0 0 0 0 0 0 0 0 0 0 0 0 0 0 0 0 0 0 0 0 0 0 0 0 0 0 0 0 0 0 0 0 0 0 0 0 0 0
0 0 0 0 0 0 0 0 0 0 0 0 0 0 0 0 0 0 0 0 0 0 0 0 0 0 0 0 0 0 0 0 0 0 0 0 0 0
0 0 0 0 0 0 0 0 0 0 0 0 0 0 0 0 0 0 0 0 0 0 0 0 0 0 0 0 0 0 0 0 0 0 0 0 0 0
0 0 0 0 0 0 0 0 0 0 0 0 0 0 0 0 0 0 0 0 0 0 0 0 0 0 0 0 0 0 0 0 0 0 0 0 0 0
0 0 0 0 0 0 0 0 0 0 0 0 0 0 0 0 0 0 0 0 0 0 0 0 0 0 0 0 0 0 0 0 0 0 0 0 0 0
0 0 0 0 0 0 0 0 0 0 0 0 0 0 0 0 0 0 0 0 0 0 0 0 0 0 0 0 0 0 0 0 0 0 0 0 0 0
0 0 0 0 0 0 0 0 0 0 0 0 0 0 0 0 0 0 0 0 0 0 0 0 0 0 0 0 0 0 0 0 0 0 0 0 0 0
0 0 0 0 0 0 0 0 0 0 0 0 0 0 0 0 0 0 0 0 0 0 0 0 0 0 0 0 0 0 0 0 0 0 0 0 0 0
0 0 0 0 0 0 0 0 0 0 0 0 0 0 0 0 0 0 0 0 0 0 0 0 0 0 0 0 0 0 0 0 0 0 0 0 0 0
0 0 0 0 0 0 0 0 0 0 0 0 0 0 0 0 0 0 0 0 0 0 0 0 0 0 0 0 0 0 0 0 0 0 0 0 0 0
0 0 0 0 0 0 0 0 0 0 0 0 0 0 0 0 0 0 0 0 0 0 0 0 0 0 0 0 0 0 0 0 0 0 0 0 0 0
0 0 0 0 0 0 0 0 0 0 0 0 0 0 0 0 0 0 0 0 0 0 0 0 0 0 0 0 0 0 0 0 0 0 0 0 0 0
0 0 0 0 0 0 0 0 0 0 0 0 0 0 0 0 0 0 0 0 0 0 0 0 0 0 0 0 0 0 0 0 0 0 0 0 0 0
0 0 0 0 0 0 0 0 0 0 0 0 0 0 0 0 0 0 0 0 0 0 0 0 0 0 0 0 0 0 0 0 0 0 0 0 0 0
Wind_Speed
1 2 2 2 2 2 2 2 3 5 5 3 2 2 3 3 6 4 4 9 11 11 11 11 11 11 11 11 10 11 9 9 9 9 9 10 10 11
1 1 2 2 2 2 2 2 3 4 6 3 3 4 4 5 7 5 5 10 11 11 11 11 11 11 11 11 10 10 9 9 10 10 10 11 11 11
2 2 3 3 2 2 2 2 3 3 6 5 3 4 5 5 5 4 5 5 5 11 12 11 11 11 11 11 10 11 10 10 10 10 11 11 11 12
2 2 3 3 3 3 2 3 3 3 4 7 5 4 5 5 5 6 5 5 5 10 11 11 11 11 11 11 11 10 10 10 10 10 10 11 12 12
3 3 4 3 4 3 3 3 3 4 4 5 6 4 4 4 5 5 6 5 6 7 10 10 11 12 12 12 11 10 10 10 10 10 10 11 12 13
3 4 4 4 4 4 4 4 4 4 4 5 6 5 4 4 3 4 5 4 5 5 7 8 10 12 12 12 11 10 10 10 10 10 10 11 11 12
3 4 4 5 7 6 5 4 4 4 4 5 5 5 4 4 4 4 6 6 6 4 4 5 5 5 5 8 9 10 10 9 10 10 10 10 11 11
4 4 5 5 7 9 9 9 7 5 5 5 5 6 6 5 5 5 5 6 6 2 4 6 4 5 4 4 8 10 9 9 9 9 10 10 11 12
4 4 4 5 6 5 8 10 9 10 10 6 7 7 7 6 6 6 6 6 7 5 5 7 4 5 4 6 10 10 9 9 9 10 10 10 11 12
4 4 4 5 5 6 5 6 6 6 7 5 6 7 7 6 6 6 7 7 7 5 3 5 4 5 5 4 8 8 9 9 9 9 10 10 11 12
4 4 4 5 8 9 6 6 6 6 8 10 10 9 11 12 9 4 4 5 6 4 2 3 3 5 5 4 4 6 8 9 10 10 11 11 12 12
3 4 7 7 9 9 5 5 7 6 5 6 6 7 6 7 9 5 4 4 5 4 2 2 2 3 5 3 2 3 5 8 10 11 11 11 12 7
3 3 4 9 10 10 8 5 8 7 4 4 4 4 4 3 4 4 4 4 5 5 3 2 3 2 3 5 4 3 3 4 5 6 8 10 11 8
4 3 4 9 9 9 7 8 10 7 3 3 4 4 4 4 4 5 5 4 5 6 6 4 4 4 4 5 5 3 3 4 4 5 4 8 9 10
4 6 7 8 7 5 7 9 6 3 3 3 4 4 4 4 4 4 4 4 5 5 5 5 5 4 4 5 5 5 5 4 4 4 4 5 5 5
4 6 7 6 5 5 5 5 3 3 3 4 4 4 4 4 3 3 3 3 4 4 4 4 4 5 5 6 6 7 5 4 4 4 5 6 5 4
2 1 1 2 2 2 2 3 2 3 3 3 4 4 4 4 4 3 2 3 3 4 5 3 3 4 5 6 6 6 5 5 5 5 5 6 6 5
3 2 3 3 3 3 3 3 3 3 3 4 3 4 4 4 4 3 2 3 4 4 4 4 4 4 3 3 5 5 4 5 5 5 5 6 7 5
3 3 3 3 4 3 3 3 4 3 3 3 3 3 3 4 4 3 3 3 3 4 4 3 2 3 4 6 4 3 4 5 5 5 5 5 7 6
3 3 4 3 3 4 4 4 4 3 3 3 3 3 3 3 3 3 3 3 3 4 4 3 2 2 3 5 5 6 6 6 5 6 6 5 6 7
3 3 4 3 3 4 4 3 3 3 3 3 3 3 3 3 3 3 3 5 4 3 4 4 4 6 4 3 4 5 5 6 7 6 6 6 6 5
4 4 4 4 4 4 3 3 3 3 3 3 3 3 3 3 3 4 3 3 3 3 4 4 4 3 2 3 5 6 7 7 6 8 8 7 5 4
4 4 4 4 4 3 3 4 4 4 3 3 3 3 3 3 3 3 3 3 3 3 3 4 4 3 3 3 4 5 7 8 6 5 4 7 8 9
Wind_Direction
307 307 305 302 300 293 286 274 273 290 292 288 295 294 307 305 314 313 304 310 315 313 311 311 310 309 310 305 304 301 293 292 287 281 278 275 276 280
308 321 315 303 296 292 285 280 267 268 281 287 285 296 305 308 311 309 297 309 308 308 306 305 306 306 308 308 305 304 294 292 288 283 282 276 275 280
323 314 303 301 298 296 291 287 281 270 275 289 289 299 301 299 303 299 294 292 296 304 302 302 303 303 304 305 302 302 295 291 287 283 283 281 278 278
292 294 293 299 297 296 294 289 285 276 274 289 296 299 295 297 297 299 304 303 292 298 298 299 299 301 302 302 299 296 291 289 286 283 280 283 282 279
272 276 282 288 290 290 290 287 285 285 275 280 291 294 294 301 308 302 296 291 294 299 299 297 299 302 301 301 300 298 294 290 285 283 284 285 286 283
270 269 274 273 276 280 283 282 288 288 283 282 288 294 292 298 302 305 307 302 300 301 296 298 298 300 299 299 299 297 293 289 285 285 287 286 286 284
274 272 271 274 278 280 284 283 287 288 292 292 291 297 298 308 307 304 301 307 296 284 295 293 292 287 287 290 294 291 291 290 289 291 291 289 288 289
271 278 279 280 284 288 289 288 282 281 284 286 289 291 292 290 292 297 303 309 304 296 306 296 284 281 278 271 288 293 291 292 292 292 293 292 292 292
262 274 284 286 293 289 288 290 286 281 277 275 276 280 289 289 291 289 286 284 280 286 297 287 284 281 277 285 293 290 290 295 298 298 295 293 294 294
259 260 269 280 281 285 282 285 283 284 284 278 268 274 282 288 279 279 282 286 280 269 262 276 289 285 289 282 282 286 293 297 299 300 297 297 298 295
262 260 268 272 282 290 289 284 286 287 292 288 284 287 293 297 300 297 295 297 296 289 253 263 286 300 295 278 277 295 303 303 300 300 299 299 299 297
268 264 270 280 288 292 286 280 284 286 290 296 298 301 301 300 302 291 280 283 291 291 274 279 286 320 310 292 288 299 300 298 301 302 301 300 301 295
267 266 267 283 287 290 291 280 282 290 286 289 291 294 296 295 296 292 278 267 268 268 281 301 287 288 275 296 299 287 284 292 299 297 301 302 300 295
261 264 270 283 289 295 295 294 296 301 298 294 295 296 299 299 296 290 281 269 261 264 274 272 267 273 282 289 290 292 291 285 286 287 292 297 297 295
257 271 280 286 294 298 297 302 304 303 298 292 291 290 288 287 292 296 291 285 280 275 276 266 260 266 268 272 283 287 298 294 282 286 293 295 291 288
260 266 273 280 286 291 299 303 298 289 289 282 289 289 290 292 294 297 301 310 305 297 283 271 264 263 270 272 271 279 284 282 290 297 298 295 287 276
266 267 261 278 276 279 286 285 287 294 291 286 289 295 299 298 297 301 294 298 292 300 308 311 284 268 260 263 271 269 275 281 281 293 298 297 291 278
252 252 254 258 265 271 279 284 280 281 283 285 287 291 295 296 299 303 301 293 292 295 301 310 322 324 316 288 249 257 274 284 292 294 289 292 292 285
239 247 253 258 264 266 267 269 274 278 279 279 283 288 291 294 296 300 302 300 297 298 299 301 314 319 317 314 305 265 277 294 298 299 293 288 287 287
240 250 256 258 262 264 265 268 273 278 278 280 281 287 292 293 296 296 294 293 296 301 305 305 303 295 284 286 292 295 291 280 288 292 296 296 285 283
245 250 251 253 257 258 261 262 266 270 274 276 276 277 281 282 286 288 287 293 299 298 301 302 296 303 294 292 293 295 297 291 283 282 290 299 300 301
246 249 251 251 254 254 255 256 261 265 267 267 270 272 273 273 278 285 284 288 291 292 297 301 307 313 310 294 294 299 306 312 312 303 286 274 283 294
248 249 251 249 250 251 249 249 250 256 259 261 263 266 271 276 279 281 281 283 290 296 304 310 316 316 306 292 293 299 306 313 316 321 315 313 303 290